DW5948 Weather Reports


time (UTC)temp
C
wind
direction
speed
KPH
gust
KPH
rain 1hr
cm
rain 24hr
cm
rain mn
cm
humidity
%
barometer
mb
20260507014533 23 330 4.8 11.3 0.00 0.00 0.00 81 1010.2
20260507013022 24 314 1.6 16.1 0.00 0.00 0.00 81 1010.2
20260507011522 24 328 1.6 14.5 0.00 0.00 0.00 81 1009.8
20260507010021 25 321 4.8 11.3 0.00 0.00 0.00 81 1009.7
20260507004523 25 321 0.0 12.9 0.00 0.00 0.00 82 1009.2
20260507003020 26 340 3.2 14.5 0.00 0.00 0.00 80 1008.9
20260507001524 28 205 3.2 11.3 0.00 0.00 0.00 84 1008.4
20260507000026 28 209 1.6 8.0 0.00 0.00 0.00 83 1008.4
20260506234517 28 138 3.2 9.7 0.00 0.00 0.00 82 1008.3
20260506233017 30 136 3.2 11.3 0.00 0.00 0.00 78 1008.2
20260506231516 30 260 1.6 6.4 0.00 0.00 0.00 76 1008.0
20260506230017 30 145 1.6 6.4 0.00 0.00 0.00 76 1007.9
20260506224516 30 266 0.0 4.8 0.00 0.00 0.00 76 1007.8
20260506223015 31 141 3.2 11.3 0.00 0.00 0.00 74 1007.9
20260506221516 31 141 0.0 8.0 0.00 0.00 0.00 74 1007.8
20260506220020 31 151 3.2 8.0 0.00 0.00 0.00 73 1007.7
20260506214513 31 116 3.2 8.0 0.00 0.00 0.00 73 1007.7
20260506213010 31 195 1.6 9.7 0.00 0.00 0.00 75 1007.8
20260506211510 31 116 3.2 8.0 0.00 0.00 0.00 74 1007.9
20260506210009 31 120 4.8 11.3 0.00 0.00 0.00 74 1008.1
20260506204505 30 115 1.6 9.7 0.00 0.00 0.00 76 1008.2
20260506203007 30 111 6.4 17.7 0.00 0.00 0.00 75 1008.5
20260506201504 30 214 4.8 17.7 0.00 0.00 0.00 77 1008.5
20260506200004 29 167 4.8 14.5 0.00 0.00 0.00 79 1008.5
20260506194503 30 168 1.6 9.7 0.00 0.00 0.00 77 1008.6
20260506193001 30 117 6.4 11.3 0.00 0.00 0.00 76 1008.7
20260506191600 30 172 1.6 9.7 0.00 0.00 0.00 79 1008.9
20260506184557 30 118 1.6 11.3 0.00 0.00 0.00 79 1009.3
20260506183054 28 150 1.6 6.4 0.00 0.00 0.00 83 1009.5
20260506181552 28 141 3.2 8.0 0.00 0.00 0.00 81 1009.8
20260506174547 28 162 3.2 8.0 0.00 0.00 0.00 83 1010.3
20260506173049 28 108 0.0 4.8 0.00 0.00 0.00 84 1010.6
20260506171549 27 130 1.6 8.0 0.00 0.00 0.00 85 1010.6
20260506170055 27 150 1.6 8.0 0.00 0.00 0.00 86 1010.7
20260506164538 26 165 0.0 4.8 0.00 0.00 0.00 89 1010.6
20260506163056 26 141 0.0 9.7 0.00 0.00 0.00 90 1010.7
20260506161534 26 141 1.6 8.0 0.00 0.00 0.00 90 1010.4
20260506160034 26 182 1.6 9.7 0.00 0.00 0.00 89 1010.3
20260506154532 26 214 0.0 4.8 0.00 0.00 0.00 88 1010.2
20260506153031 26 203 1.6 11.3 0.00 0.00 0.00 87 1010.2
20260506151528 26 160 1.6 9.7 0.00 0.00 0.00 87 1009.7
20260506150028 26 259 1.6 6.4 0.00 0.00 0.00 88 1009.8
20260506144525 26 146 3.2 8.0 0.00 0.00 0.00 88 1009.4
20260506143022 26 122 0.0 8.0 0.00 0.00 0.00 90 1009.3
20260506141519 25 207 3.2 8.0 0.00 0.00 0.00 91 1009.2
20260506140016 25 139 1.6 9.7 0.00 0.00 0.00 93 1009.3
20260506134513 25 120 1.6 4.8 0.00 0.00 0.00 94 1009.4
20260506133011 24 131 0.0 1.6 0.00 0.00 0.00 95 1009.2
20260506131514 24 154 0.0 3.2 0.00 0.00 0.00 96 1009.4
20260506130010 23 162 1.6 4.8 0.00 0.00 0.00 96 1009.4
20260506124508 23 139 0.0 3.2 0.00 0.00 0.00 96 1009.4
20260506123007 23 166 0.0 3.2 0.00 0.00 0.00 96 1009.4
20260506121505 23 155 0.0 1.6 0.00 0.00 0.00 95 1009.1
20260506120006 23 125 0.0 1.6 0.00 0.00 0.00 95 1009.0
20260506114504 23 133 0.0 1.6 0.00 0.00 0.00 95 1008.9
20260506113004 23 139 0.0 3.2 0.00 0.00 0.00 95 1008.6
20260506111501 23 162 0.0 3.2 0.00 0.00 0.00 95 1008.4
20260506110002 23 149 0.0 6.4 0.00 0.00 0.00 95 1008.3
20260506104500 23 141 1.6 6.4 0.00 0.00 0.00 95 1008.3
20260506103059 23 155 0.0 6.4 0.00 0.00 0.00 94 1008.2
20260506101605 23 144 1.6 4.8 0.00 0.00 0.00 94 1008.2
20260506100058 23 152 0.0 4.8 0.00 0.00 0.00 94 1008.1
20260506094622 23 141 0.0 4.8 0.00 0.00 0.00 93 1008.0
20260506093057 23 165 0.0 6.4 0.00 0.00 0.00 93 1007.9
20260506091552 23 156 3.2 6.4 0.00 0.00 0.00 93 1008.0
20260506090051 24 145 3.2 6.4 0.00 0.00 0.00 92 1008.2
20260506084549 24 151 1.6 4.8 0.00 0.00 0.00 92 1008.2
20260506083049 24 139 0.0 4.8 0.00 0.00 0.00 92 1008.3
20260506081547 24 148 1.6 6.4 0.00 0.00 0.00 92 1008.4
20260506073046 24 153 3.2 8.0 0.00 0.00 0.00 92 1008.7
20260506071540 24 110 1.6 8.0 0.00 0.00 0.00 91 1008.7
20260506061538 25 141 1.6 8.0 0.00 0.00 0.00 91 1009.1
20260506044538 25 162 1.6 8.0 0.00 0.00 0.00 90 1009.1
20260506043028 25 131 0.0 8.0 0.00 0.00 0.00 90 1009.2
20260506041526 25 125 3.2 8.0 0.00 0.00 0.00 90 1008.8
20260506040048 25 214 1.6 11.3 0.00 0.00 0.00 89 1009.1
20260506034525 25 140 3.2 11.3 0.00 0.00 0.00 89 1008.8
20260506033024 25 120 3.2 14.5 0.00 0.00 0.00 88 1008.6
20260506031538 25 126 1.6 14.5 0.00 0.00 0.00 88 1008.5
20260506030022 25 169 4.8 14.5 0.00 0.00 0.00 87 1008.5
20260506024522 25 159 4.8 11.3 0.00 0.00 0.00 87 1008.2
20260506023021 25 108 3.2 12.9 0.00 0.00 0.00 87 1008.1
20260506021521 25 190 3.2 8.0 0.00 0.00 0.00 86 1007.9
20260506020020 25 226 4.8 11.3 0.00 0.00 0.00 86 1007.7